This is the latest recevied weather packets stored in our database for station/object SV2BZQ-2. If no packets are shown the sender has not sent any weather packets the latest 1 day(s).
| Time | Temp. | Humidity | Pressure | Rain* | Wind** | Luminosity | Snow |
|---|---|---|---|---|---|---|---|
| 1836274834 | 15.56° C | 76% | 1024 hPa | 0 mm | 1.34 m/s, 299° | 0 W/m² | - |
| 1836274587 | 15.56° C | 76% | 1024 hPa | 0 mm | 0.89 m/s, 334° | 0 W/m² | - |
| 1836274572 | 15.56° C | 76% | 1024 hPa | 0 mm | 1.34 m/s, 276° | 0 W/m² | - |
| 1836274495 | 15.56° C | 76% | 1024 hPa | 0 mm | 0.89 m/s, 315° | 0 W/m² | - |
| 1836274411 | 15.56° C | 76% | 1024 hPa | 0 mm | 0.89 m/s, 307° | 0 W/m² | - |
| 1836274333 | 15.56° C | 76% | 1024 hPa | 0 mm | 1.34 m/s, 303° | 0 W/m² | - |
| 1836274211 | 15.56° C | 76% | 1024 hPa | 0 mm | 0.89 m/s, 315° | 0 W/m² | - |
| 1836274198 | 15.56° C | 76% | 1023.9 hPa | 0 mm | 1.34 m/s, 298° | 0 W/m² | - |
| 1836273882 | 15.56° C | 76% | 1024.1 hPa | 0 mm | 0.89 m/s, 299° | 0 W/m² | - |
| 1778054493 | 21.67° C | 61% | 1014 hPa | 0 mm | 0.89 m/s, 277° | 708 W/m² | - |
| 1778054364 | 21.67° C | 61% | 1014 hPa | 0 mm | 0.45 m/s, 316° | 705 W/m² | - |
| 1778054255 | 21.67° C | 61% | 1014 hPa | 0 mm | 0.45 m/s, 234° | 703 W/m² | - |
| 1778054166 | 21.67° C | 61% | 1014 hPa | 0 mm | 0.89 m/s, 9° | 701 W/m² | - |
| 1778054034 | 21.67° C | 61% | 1014 hPa | 0 mm | 0.89 m/s, 33° | 693 W/m² | - |
| 1778053942 | 21.67° C | 62% | 1014.1 hPa | 0 mm | 0.89 m/s, 17° | 687 W/m² | - |
| 1778053838 | 21.11° C | 63% | 1014 hPa | 0 mm | 0.89 m/s, 11° | 684 W/m² | - |
| 1778053747 | 21.11° C | 63% | 1014.1 hPa | 0 mm | 0.89 m/s, 207° | 677 W/m² | - |
| 1778053629 | 21.11° C | 63% | 1014.1 hPa | 0 mm | 0.89 m/s, 297° | 673 W/m² | - |
| 1778053504 | 21.11° C | 64% | 1014.1 hPa | 0 mm | 0.89 m/s, 346° | 670 W/m² | - |
| 1778053414 | 20.56° C | 65% | 1014.1 hPa | 0 mm | 0.45 m/s, 355° | 666 W/m² | - |
| 1778053319 | 20.56° C | 66% | 1014.1 hPa | 0 mm | 0.45 m/s, 355° | 663 W/m² | - |
| 1778053081 | 20.56° C | 66% | 1014.1 hPa | 0 mm | 0.45 m/s, 180° | 654 W/m² | - |
| 1778052997 | 20° C | 66% | 1014.1 hPa | 0 mm | 0.45 m/s, 254° | 647 W/m² | - |
| 1778052776 | 20° C | 67% | 1014.1 hPa | 0 mm | 0.45 m/s, 129° | 643 W/m² | - |
| 1778052685 | 20° C | 68% | 1014.1 hPa | 0 mm | 0.45 m/s, 301° | 635 W/m² | - |
* Rain latest hour (hover to see other rain measurements)
** Current wind speed in m/s (hover to see current wind gust speed)